This is the latest recevied weather packets stored in our database for station/object IU7LMH-13. If no packets are shown the sender has not sent any weather packets the latest 10 day(s).
| Time | Temp. | Humidity | Pressure | Rain* | Wind** | Luminosity | Snow |
|---|---|---|---|---|---|---|---|
| 1777991141 | 19.44° C | 67% | 1016.1 hPa | 0 mm | - | - | - |
| 1777990778 | 19.44° C | 67% | 1016 hPa | 0 mm | - | - | - |
| 1777989218 | 19.44° C | 77% | 1016 hPa | 0 mm | - | - | - |
| 1777987059 | 18.89° C | 81% | 1016.4 hPa | 0 mm | - | - | - |
| 1777986342 | 18.89° C | 81% | 1016.4 hPa | 0 mm | - | - | - |
| 1777985858 | 18.89° C | 79% | 1016.4 hPa | 0 mm | - | - | - |
| 1777985378 | 18.89° C | 79% | 1016.3 hPa | 0 mm | - | - | - |
| 1777985145 | 18.89° C | 79% | 1016.5 hPa | 0 mm | - | - | - |
| 1777984060 | 19.44° C | 78% | 1016.6 hPa | 0 mm | - | - | - |
| 1777983578 | 19.44° C | 79% | 1016.6 hPa | 0 mm | - | - | - |
| 1777983343 | 19.44° C | 78% | 1016.7 hPa | 0 mm | - | - | - |
| 1777981543 | 19.44° C | 77% | 1016.7 hPa | 0 mm | - | - | - |
| 1777981298 | 19.44° C | 76% | 1016.6 hPa | 0 mm | - | - | - |
| 1777979978 | 19.44° C | 78% | 1016.5 hPa | 0 mm | - | - | - |
| 1777979858 | 19.44° C | 77% | 1016.5 hPa | 0 mm | - | - | - |
| 1777977696 | 20.56° C | 73% | 1016.5 hPa | 0 mm | - | - | - |
| 1777977458 | 20.56° C | 73% | 1016.6 hPa | 0 mm | - | - | - |
| 1777976497 | 21.11° C | 72% | 1016.6 hPa | 0 mm | - | - | - |
| 1777976378 | 20.56° C | 72% | 1016.7 hPa | 0 mm | - | - | - |
| 1777976144 | 20.56° C | 73% | 1016.5 hPa | 0 mm | - | - | - |
| 1777975178 | 20.56° C | 73% | 1016.7 hPa | 0 mm | - | - | - |
| 1777973980 | 21.11° C | 70% | 1016.9 hPa | 0 mm | - | - | - |
| 1777973859 | 21.11° C | 69% | 1016.6 hPa | 0 mm | - | - | - |
| 1777972058 | 20.56° C | 68% | 1016.8 hPa | 0 mm | - | - | - |
| 1777971817 | 21.11° C | 67% | 1016.9 hPa | 0 mm | - | - | - |
* Rain latest hour (hover to see other rain measurements)
** Current wind speed in m/s (hover to see current wind gust speed)